Stations météo

Publicité
Achnagart, Grande-Bretagne (99191): Température de l'air & dewpoint: 11.08.2019 21:00:00 - 17.08.2019 21:00:00 (BST)Achnagart, Grande-Bretagne (99191): Quantités de précipitations: 11.08.2019 21:00:00 - 17.08.2019 21:00:00 (BST)
Date & Time tt [°C] td [°C] rr [mm]
17.08.2019 21:00:00 13,6 9,3 1,4
17.08.2019 20:00:00 13,6 9,6 1,0
17.08.2019 19:00:00 13,3 10,0 2,6
17.08.2019 18:00:00 12,0 10,4 3,4
17.08.2019 17:00:00 13,6 9,0 1,2
17.08.2019 16:00:00 14,8 9,2 0,6
17.08.2019 15:00:00 15,8 9,5 0,2
17.08.2019 14:00:00 15,6 8,9 0,8
17.08.2019 13:00:00 14,7 8,3 0,0
17.08.2019 12:00:00 13,6 9,4 0,2
17.08.2019 11:00:00 12,4 7,4 1,2
17.08.2019 10:00:00 12,5 9,5 0,8
17.08.2019 09:00:00 12,3 9,7 0,4
17.08.2019 08:00:00 12,2 10,1 1,4
17.08.2019 07:00:00 12,1 9,8 0,2
17.08.2019 06:00:00 13,2 8,8 0,0
17.08.2019 05:00:00 13,0 9,3 1,4
17.08.2019 04:00:00 12,9 12,3 3,8
17.08.2019 03:00:00 12,7 12,4 0,8
17.08.2019 02:00:00 13,2 12,5 0,2
17.08.2019 01:00:00 13,2 12,5 1,2
17.08.2019 00:00:00 14,3 11,7 0,2
16.08.2019 23:00:00 16,0 11,0 0,0
16.08.2019 22:00:00 16,0 10,6 0,0
16.08.2019 21:00:00 16,6 10,3 0,0
16.08.2019 20:00:00 16,9 10,7 0,0
16.08.2019 19:00:00 17,2 11,5 0,0
16.08.2019 18:00:00 17,7 11,4 0,0
16.08.2019 17:00:00 18,0 11,6 0,0
16.08.2019 16:00:00 17,2 11,6 0,0
16.08.2019 15:00:00 17,0 13,4 1,2
16.08.2019 14:00:00 16,8 15,9 2,0
16.08.2019 13:00:00 16,7 15,5 1,0
16.08.2019 12:00:00 15,9 14,4 1,2
16.08.2019 11:00:00 15,4 13,4 0,6
16.08.2019 10:00:00 16,2 12,5 0,0
16.08.2019 09:00:00 16,2 11,9 0,0
16.08.2019 08:00:00 14,5 12,5 0,6
16.08.2019 07:00:00 14,5 12,1 0,4
16.08.2019 06:00:00 13,9 12,5 0,8
16.08.2019 05:00:00 14,6 12,7 1,6
16.08.2019 04:00:00 14,1 13,1 1,4
16.08.2019 03:00:00 13,8 12,9 0,4
16.08.2019 02:00:00 14,4 12,5 0,4
16.08.2019 01:00:00 14,4 13,3 0,6
16.08.2019 00:00:00 12,7 12,0 0,8
15.08.2019 23:00:00 12,1 11,6 1,0
15.08.2019 22:00:00 11,7 11,2 0,8
15.08.2019 21:00:00 11,7 10,8 1,4
15.08.2019 20:00:00 12,6 10,0 0,0
15.08.2019 19:00:00 14,6 8,5 0,0
15.08.2019 18:00:00 15,3 7,2 0,0
15.08.2019 17:00:00 16,9 8,3 0,0
15.08.2019 16:00:00 17,2 9,1 0,0
15.08.2019 15:00:00 17,7 9,7 0,0
15.08.2019 14:00:00 14,7 9,0 0,0
15.08.2019 13:00:00 14,7 8,7 0,0
15.08.2019 12:00:00 15,1 7,2 0,0
15.08.2019 11:00:00 15,2 9,7 0,0
15.08.2019 10:00:00 13,0 9,1 0,0
15.08.2019 09:00:00 12,2 9,4 0,0
15.08.2019 08:00:00 12,3 10,3 0,0
15.08.2019 07:00:00 12,5 11,1 0,4
15.08.2019 06:00:00 13,5 12,4 1,4
15.08.2019 05:00:00 12,7 12,7 0,4
15.08.2019 04:00:00 12,6 12,5 0,0
15.08.2019 03:00:00 12,7 12,6 0,6
15.08.2019 02:00:00 12,7 12,6 0,2
15.08.2019 01:00:00 12,7 12,3 0,0
15.08.2019 00:00:00 13,1 12,4 0,4
14.08.2019 23:00:00 13,5 12,7 1,4
14.08.2019 22:00:00 13,6 12,6 3,6
14.08.2019 21:00:00 13,6 12,5 1,4
14.08.2019 20:00:00 13,5 12,3 2,0
14.08.2019 19:00:00 14,7 11,4 0,0
14.08.2019 18:00:00 16,2 10,9 0,0
14.08.2019 17:00:00 16,5 11,4 0,0
14.08.2019 16:00:00 16,6 11,0 0,0
14.08.2019 15:00:00 16,1 11,0 0,0
14.08.2019 14:00:00 15,7 10,7 0,0
14.08.2019 13:00:00 15,7 10,3 0,0
14.08.2019 12:00:00 14,3 9,8 0,0
14.08.2019 11:00:00 12,9 9,4 0,0
14.08.2019 10:00:00 13,0 8,6 0,0
14.08.2019 09:00:00 12,8 8,3 0,0
14.08.2019 08:00:00 11,7 8,0 0,0
14.08.2019 07:00:00 10,7 7,7 0,0
14.08.2019 06:00:00 10,2 7,8 0,0
14.08.2019 05:00:00 9,6 7,9 0,0
14.08.2019 04:00:00 9,0 8,5 0,0
14.08.2019 03:00:00 7,0 6,9 0,0
14.08.2019 02:00:00 7,0 6,6 0,0
14.08.2019 01:00:00 7,5 6,6 0,0
14.08.2019 00:00:00 8,3 8,0 0,0
13.08.2019 23:00:00 8,3 7,2 0,0
13.08.2019 22:00:00 10,2 7,4 0,0
13.08.2019 21:00:00 12,8 7,1 0,0
13.08.2019 20:00:00 13,4 6,9 0,0
13.08.2019 19:00:00 13,8 7,2 0,0
13.08.2019 18:00:00 14,4 7,2 0,0
13.08.2019 17:00:00 15,0 8,0 0,0
13.08.2019 16:00:00 14,8 7,3 0,0
13.08.2019 15:00:00 13,8 7,8 0,2
13.08.2019 14:00:00 15,5 7,3 0,0
13.08.2019 13:00:00 13,2 9,0 1,2
13.08.2019 12:00:00 14,2 7,2 0,0
13.08.2019 11:00:00 14,4 9,3 0,0
13.08.2019 10:00:00 14,2 9,7 0,0
13.08.2019 09:00:00 11,1 10,5 0,2
13.08.2019 08:00:00 10,4 10,3 0,2
13.08.2019 07:00:00 9,5 9,5 0,0
13.08.2019 06:00:00 9,0 9,0 1,2
13.08.2019 05:00:00 8,4 8,3 0,0
13.08.2019 04:00:00 8,6 8,6 0,0
13.08.2019 03:00:00 9,0 8,8 0,2
13.08.2019 02:00:00 9,7 9,5 0,2
13.08.2019 01:00:00 9,7 9,5 0,2
13.08.2019 00:00:00 9,6 9,4 0,0
12.08.2019 23:00:00 10,1 9,9 0,0
12.08.2019 22:00:00 10,4 9,7 1,0
12.08.2019 21:00:00 11,0 9,8 0,2
12.08.2019 20:00:00 12,1 10,1 0,4
12.08.2019 19:00:00 12,5 11,0 1,0
12.08.2019 18:00:00 12,8 10,9 0,4
12.08.2019 17:00:00 14,3 9,9 0,0
12.08.2019 16:00:00 16,2 9,7 0,0
12.08.2019 15:00:00 13,9 9,3 0,2
12.08.2019 14:00:00 - - 0,2
12.08.2019 13:00:00 14,2 7,8 0,0
12.08.2019 12:00:00 14,7 8,9 0,0
12.08.2019 11:00:00 14,3 6,8 0,0
12.08.2019 10:00:00 12,5 9,2 0,0
12.08.2019 09:00:00 7,9 7,9 0,0
12.08.2019 08:00:00 6,5 6,5 0,0
12.08.2019 07:00:00 6,2 6,2 0,0
12.08.2019 06:00:00 6,2 6,0 0,0
12.08.2019 05:00:00 7,3 7,1 0,0
12.08.2019 04:00:00 8,0 7,7 0,0
12.08.2019 03:00:00 8,5 8,3 0,0
12.08.2019 02:00:00 8,2 8,1 0,0
12.08.2019 01:00:00 7,7 7,6 0,0
12.08.2019 00:00:00 8,1 7,6 0,0
11.08.2019 23:00:00 8,7 7,9 0,0
11.08.2019 22:00:00 9,9 8,8 0,0
11.08.2019 21:00:00 10,1 8,9 0,0

tt = Température de l'air
td = dewpoint
rr = Quantités de précipitations

stations d'obs. à proximité